Wind_Speed
24 24 23 23 22 22 22 23 23 24 25 25 26 28 27 24 22 22 24 27 30 29 29 32 31 29 29 29 28 28 27 27 28 27 27 27 28 27 26 26 21 12 9 12 15 16 17 20 22 22 26 32 34 35 35 33 34 36 37 39 41 41 41
23 22 22 22 22 21 21 21 23 26 26 26 25 24 21 18 18 20 21 23 27 30 30 30 29 28 29 30 29 28 27 27 27 25 26 27 27 26 25 25 24 17 11 10 14 16 15 16 21 23 25 29 31 32 33 33 32 32 33 34 36 38 39
20 20 19 19 19 19 19 20 22 23 23 21 20 18 17 17 18 18 19 21 20 24 29 28 26 27 29 29 29 29 27 26 26 24 24 25 26 27 25 24 25 20 13 11 13 17 17 17 21 24 25 27 29 29 30 31 31 31 31 31 31 33 35
20 20 20 20 20 20 21 21 20 19 19 19 18 17 18 19 18 18 20 22 20 20 25 28 27 26 27 26 26 25 24 23 23 23 26 27 27 27 25 22 23 23 18 14 12 15 19 20 22 24 24 25 27 27 27 27 27 28 30 31 30 30 31
20 20 21 22 21 21 22 22 21 22 24 25 23 20 19 20 20 20 22 23 22 21 21 25 28 27 27 26 24 22 22 21 21 23 26 27 25 23 22 20 21 22 22 18 13 12 17 20 20 21 22 24 27 27 24 23 24 25 26 26 27 28 29
21 21 22 22 22 22 23 23 23 24 27 28 27 24 23 23 21 21 22 24 25 23 20 21 27 29 28 26 25 22 21 20 21 22 23 22 21 20 19 18 18 20 21 19 16 12 14 18 20 19 19 22 27 28 26 24 22 22 23 24 24 25 26
22 23 22 23 23 23 23 24 24 26 28 30 30 29 29 27 23 21 22 25 26 24 21 20 22 27 27 26 25 24 21 21 21 21 21 20 20 19 17 16 17 19 20 19 17 14 13 17 21 20 18 20 23 25 25 25 22 20 22 24 25 26 27
22 22 21 22 22 22 22 22 23 25 27 30 30 30 30 30 27 25 26 29 29 25 21 19 18 21 26 27 26 25 23 22 21 19 20 20 20 18 17 16 16 17 19 19 18 16 14 17 19 18 16 17 19 18 20 26 28 26 27 27 26 27 27
21 20 20 20 20 20 20 21 21 23 26 28 29 29 30 31 31 28 26 28 30 25 21 19 18 19 22 25 24 23 21 21 21 20 19 19 20 18 17 17 16 17 18 17 17 16 14 14 14 15 15 17 21 23 22 24 27 25 26 27 25 25 26
20 20 21 21 22 22 22 22 24 25 25 26 26 27 28 28 28 26 22 23 27 26 22 20 19 18 18 19 20 19 20 20 21 23 22 21 21 20 19 18 17 17 17 16 15 14 13 11 10 14 19 21 25 29 23 20 23 21 20 22 19 18 24
21 22 23 23 24 24 25 25 26 25 24 25 25 25 25 24 23 22 20 20 23 25 25 22 21 19 17 17 17 18 20 20 21 23 24 24 23 23 22 21 18 17 17 16 15 14 13 12 12 16 23 24 24 26 23 22 26 23 21 22 17 11 17
23 24 24 24 24 24 25 26 25 23 23 24 24 24 24 23 22 21 21 20 20 22 24 23 22 21 19 19 18 18 19 20 21 22 23 24 25 25 26 25 23 21 18 16 16 14 12 14 15 18 24 26 24 24 24 23 24 25 26 26 21 14 16
25 24 24 23 24 24 25 25 24 22 22 23 24 24 24 23 23 22 22 21 20 21 23 24 23 22 22 21 20 20 20 20 21 22 23 24 25 26 27 28 29 27 22 19 18 16 14 17 19 19 23 28 28 27 25 21 20 25 29 27 24 23 22
26 25 24 23 23 24 25 24 22 20 20 21 23 23 23 24 25 24 23 23 22 22 24 26 24 23 24 24 22 22 22 21 21 22 23 23 24 25 27 28 29 29 26 22 21 20 20 21 23 23 25 29 29 28 27 25 25 28 30 27 25 24 23
27 26 25 24 23 23 23 23 21 20 19 20 21 22 23 25 26 26 26 25 24 25 26 27 26 25 26 25 24 24 23 22 22 22 22 22 23 25 27 27 28 28 26 25 23 23 23 23 24 25 26 27 28 29 30 30 30 30 28 25 21 18 18
28 27 27 27 24 22 22 22 21 19 19 19 19 20 23 27 28 26 26 26 25 25 26 27 28 27 27 27 27 26 25 23 21 21 21 22 23 25 25 25 27 27 26 26 25 24 23 23 23 24 25 26 26 28 29 26 23 23 23 20 15 13 16
30 28 28 28 25 23 23 24 21 19 19 18 17 18 18 22 29 26 24 26 26 25 25 27 28 29 29 29 29 28 26 22 20 21 21 21 23 24 23 23 25 26 25 25 25 25 23 21 22 23 24 24 24 26 29 24 19 21 23 19 12 9 13
31 30 28 27 25 24 23 23 21 18 18 19 17 18 19 12 22 26 23 23 24 23 23 26 28 30 30 31 31 29 26 22 21 22 23 23 23 23 22 23 25 25 24 24 24 24 21 18 19 20 21 21 22 25 28 27 24 24 23 18 12 10 10
29 29 28 26 25 25 23 22 21 18 17 18 17 16 17 12 7 15 18 21 22 23 24 25 26 28 29 30 30 28 25 23 22 23 24 24 22 21 23 26 26 24 24 23 23 22 20 17 16 17 18 19 20 22 26 28 27 26 25 20 15 13 11
27 27 27 27 25 25 24 23 21 19 16 17 17 15 13 12 7 2 4 8 12 16 20 23 24 26 27 29 29 28 26 24 23 24 25 25 23 22 24 25 24 24 23 23 23 22 20 18 16 16 17 18 19 21 23 25 25 25 27 23 18 17 15
26 25 27 29 26 25 25 24 22 20 16 15 15 14 11 10 7 4 5 4 3 5 9 12 15 18 22 24 26 27 27 25 23 23 25 26 27 28 26 23 22 24 22 21 23 23 22 21 19 18 19 20 20 21 22 23 24 25 25 24 21 20 19
26 25 27 29 28 26 26 25 23 20 16 14 14 12 11 9 7 5 5 7 8 8 8 8 9 10 12 15 17 19 22 22 22 23 25 28 30 31 27 23 22 23 21 20 20 20 21 21 20 21 22 21 21 22 22 22 24 24 23 23 23 21 21
26 25 26 27 28 27 27 25 22 18 13 12 12 10 9 9 7 6 7 8 11 11 10 10 11 12 13 14 14 15 17 19 21 23 24 26 28 29 28 25 23 21 21 20 18 17 19 21 22 23 23 22 21 21 21 20 21 22 21 22 22 21 21
24 23 23 24 25 26 26 24 20 14 10 10 11 9 7 7 8 8 9 10 13 12 11 11 11 11 11 12 14 15 16 18 20 21 22 23 25 28 29 26 23 21 21 20 20 19 19 20 22 23 22 22 22 21 21 21 20 20 20 20 20 19 19
23 22 22 22 23 24 25 22 17 11 8 10 10 7 5 5 6 8 9 9 10 11 11 12 12 11 10 11 12 14 15 17 19 20 21 20 21 25 28 27 25 23 21 20 21 22 21 19 21 23 23 24 24 22 22 21 19 18 18 18 18 17 17
21 21 21 21 22 24 23 19 15 12 11 11 9 5 2 2 1 2 4 5 7 7 8 8 8 9 9 10 11 12 13 15 18 19 20 19 17 21 26 28 27 24 22 21 22 22 20 18 19 23 25 25 25 24 22 22 21 19 18 18 18 16 14
19 19 20 21 22 24 22 18 15 14 13 12 10 7 6 6 5 4 2 2 2 2 2 3 3 5 6 7 9 10 11 13 14 16 18 19 18 19 22 26 29 29 27 26 25 23 21 21 22 25 27 27 26 25 25 23 23 22 21 20 19 17 15
19 20 22 23 24 24 21 16 14 14 13 13 12 11 11 10 9 7 6 5 3 2 1 2 3 3 3 4 5 5 5 5 7 9 12 15 17 19 20 22 25 28 29 28 25 24 24 26 26 27 28 28 25 25 26 26 25 25 24 23 21 18 16
21 22 25 26 26 24 17 12 14 15 14 13 12 12 11 10 10 9 7 5 3 1 1 2 3 4 3 3 3 3 3 3 2 2 4 7 10 14 17 19 20 22 23 24 25 27 29 29 27 25 26 25 23 24 27 28 26 27 26 23 20 18 18
22 25 27 28 29 27 21 16 16 16 15 14 13 11 10 10 9 8 7 6 3 2 4 6 7 7 7 6 6 6 6 6 6 6 5 4 5 7 11 15 18 19 21 24 26 28 31 31 27 24 23 23 23 25 27 27 26 28 27 22 19 19 18
25 26 27 28 29 28 26 23 22 19 17 16 14 12 12 11 9 8 9 7 5 5 8 9 8 8 8 8 8 8 7 7 6 7 8 8 7 7 7 10 13 16 21 25 25 25 27 28 26 25 24 23 23 24 25 24 24 24 23 19 19 20 20
26 27 28 28 27 26 25 25 23 21 19 17 15 13 12 11 10 9 8 7 6 9 10 9 8 8 8 8 8 8 7 7 7 8 8 10 10 10 8 8 9 12 17 21 22 21 21 21 21 23 24 24 24 24 23 22 22 21 20 18 17 17 18
28 28 27 27 27 26 25 23 23 22 20 17 15 13 12 11 12 12 11 9 9 11 11 9 9 9 8 8 8 8 8 8 8 9 11 12 12 12 11 10 10 11 13 16 17 19 20 20 21 22 22 22 21 21 21 21 20 19 18 18 18 17 16
31 29 27 27 27 26 25 23 23 24 22 18 17 14 12 13 15 16 16 16 15 14 12 11 10 10 9 8 8 8 8 8 9 11 12 12 12 12 11 10 10 12 13 15 16 17 19 21 22 22 23 22 19 17 17 18 18 17 17 18 19 19 18
29 29 26 26 26 26 24 23 23 24 22 20 19 17 15 17 20 21 21 20 18 16 13 12 11 10 9 8 8 7 7 8 9 10 11 11 10 10 10 10 11 12 13 14 16 17 18 19 20 21 22 23 22 20 18 17 16 16 17 18 19 21 20
24 25 24 25 27 27 24 22 23 23 23 22 22 20 21 23 23 22 20 20 18 16 14 13 12 10 9 8 8 7 7 7 7 8 8 8 8 7 8 9 10 11 13 14 15 16 17 18 19 19 20 21 21 19 18 18 18 18 19 20 20 21 21
Wind_Direction
284 282 280 277 273 270 268 267 268 267 266 264 264 264 263 263 265 270 273 263 248 243 246 246 245 244 244 244 241 240 239 236 236 237 233 234 237 235 228 223 222 230 244 238 232 234 236 233 226 220 220 219 219 220 221 223 226 228 228 228 227 226 225
284 281 278 276 271 267 266 266 268 269 266 261 260 261 262 266 273 280 286 275 250 241 246 249 244 242 245 245 241 238 235 233 234 235 232 230 233 235 233 225 220 224 237 236 227 224 225 224 220 217 217 216 218 220 217 216 219 223 226 228 227 227 226
283 280 278 278 276 273 273 272 272 271 266 261 262 267 271 274 276 278 287 289 272 250 246 246 244 243 243 242 237 232 231 232 233 233 232 230 229 232 235 230 223 223 229 234 228 220 214 211 211 214 217 216 217 219 217 215 217 220 223 226 227 228 228
281 279 279 279 280 280 278 276 277 279 277 275 277 278 275 273 274 278 284 288 290 275 254 244 241 242 241 237 232 227 226 229 231 233 234 230 225 226 229 231 228 227 229 233 231 219 214 214 211 212 216 214 211 214 217 216 216 218 221 224 225 227 229
282 279 277 277 277 276 275 274 276 279 279 279 279 276 272 272 275 279 282 284 286 286 271 249 239 240 241 235 229 225 223 225 230 234 232 225 219 221 223 224 226 229 232 232 231 220 213 214 213 209 212 212 208 207 209 209 212 214 217 221 224 228 231
283 280 277 276 274 272 272 273 273 275 276 276 277 275 273 274 275 275 278 282 283 285 285 264 243 238 239 232 226 224 222 224 229 233 229 221 218 219 220 220 222 227 231 230 230 223 206 207 210 207 207 210 208 204 200 198 203 210 214 218 223 228 233
284 280 278 275 273 271 269 270 271 272 274 273 273 273 273 273 272 271 274 279 281 282 285 278 253 238 234 229 225 224 223 225 229 232 231 227 224 221 219 223 225 225 228 228 228 223 206 204 210 209 209 208 205 205 204 197 192 199 210 217 221 224 226
284 281 278 274 272 269 268 267 267 268 270 271 269 268 270 270 268 268 271 275 278 276 275 279 269 246 233 227 225 224 223 225 227 230 232 231 228 224 222 226 228 228 228 226 225 221 204 198 202 203 205 203 194 194 203 204 200 199 204 209 215 220 222
283 280 277 274 271 269 267 265 264 264 266 267 267 266 267 268 269 267 267 270 274 273 270 274 277 260 240 231 228 226 226 229 230 231 233 232 230 227 226 228 230 230 228 225 226 221 200 185 186 188 186 187 192 199 205 206 204 203 204 204 207 214 219
283 280 277 276 277 277 275 272 270 268 264 260 260 263 264 267 268 264 257 257 265 270 271 271 272 268 252 239 235 234 233 234 235 235 236 236 232 227 225 227 229 230 228 225 225 220 203 185 179 184 185 189 201 208 208 201 198 198 197 193 194 208 216
290 288 286 284 283 283 281 279 279 273 263 257 254 254 256 257 259 257 252 249 254 262 266 267 268 267 260 249 244 241 239 239 238 237 237 238 237 234 230 228 226 226 226 226 225 222 212 201 192 192 195 198 203 205 203 200 199 193 183 179 182 199 212
302 299 298 294 290 288 285 285 286 276 263 258 254 250 249 249 249 250 250 246 245 251 257 261 264 265 262 257 250 246 245 244 243 241 239 238 239 239 237 235 232 228 224 222 224 223 215 210 209 203 201 202 205 204 201 201 199 193 185 184 189 196 204
311 307 305 302 296 294 291 291 292 282 267 260 256 251 247 245 244 244 244 242 239 242 248 252 256 260 261 259 256 254 252 249 247 246 242 240 240 240 241 240 237 234 231 225 222 221 218 216 216 213 209 208 207 203 199 194 193 194 192 193 200 204 204
317 313 312 310 304 301 299 300 302 296 278 265 257 252 247 243 241 240 239 239 236 237 243 247 247 251 255 257 258 257 255 252 250 248 244 240 238 239 241 241 235 231 233 233 228 225 226 225 222 222 222 218 209 202 199 196 195 198 198 200 205 209 207
321 320 320 319 316 311 306 309 314 308 292 276 263 254 245 240 239 238 237 238 236 234 239 243 244 247 251 255 257 257 256 254 251 249 245 240 237 236 239 239 233 227 228 233 233 231 232 232 232 233 232 225 215 209 207 206 204 203 200 197 196 197 199
325 324 326 328 328 322 315 318 321 313 301 293 280 267 252 238 232 233 234 235 235 234 236 240 242 244 247 252 255 256 256 253 248 245 243 239 238 236 235 237 236 231 230 234 236 237 238 238 240 241 239 234 224 214 210 208 204 200 193 184 177 175 184
329 327 327 329 330 326 321 325 331 324 315 310 303 302 290 247 226 225 229 231 233 233 233 236 238 239 243 247 250 253 255 250 242 239 238 236 237 236 233 236 237 235 233 236 239 239 239 240 241 241 241 238 228 216 208 200 192 189 185 178 174 175 179
330 329 331 330 328 327 323 326 336 336 329 323 315 321 331 287 225 219 223 227 229 229 230 235 237 237 239 243 246 249 249 243 235 233 234 233 233 232 231 233 235 233 231 232 236 236 233 233 235 238 238 234 226 218 210 202 198 195 187 181 183 178 169
327 327 331 332 330 331 329 328 337 339 331 328 321 321 336 334 249 220 222 223 224 226 228 234 238 239 239 241 244 245 242 236 231 230 231 230 227 226 228 230 229 229 228 227 229 227 222 220 225 231 233 228 222 218 212 208 206 199 190 186 186 173 153
325 323 327 330 330 335 337 332 335 337 329 323 320 316 321 330 335 318 245 228 221 223 226 230 236 239 239 239 240 240 239 236 233 232 231 228 222 223 228 228 225 225 225 225 224 219 212 213 218 225 227 220 214 214 211 209 210 206 199 193 184 177 175
327 324 328 332 331 333 336 334 333 333 328 318 312 309 309 309 312 325 327 322 300 258 240 232 233 237 239 238 238 239 240 238 237 234 231 226 225 228 229 224 221 222 220 221 222 215 208 210 212 217 220 215 208 208 208 207 209 212 209 201 191 186 187
330 327 327 331 332 331 333 336 335 331 325 316 309 303 295 290 283 273 287 304 305 295 282 266 252 243 239 237 239 241 241 239 238 235 229 225 227 231 229 222 220 218 212 211 214 206 201 204 206 207 210 208 205 206 207 206 208 211 213 209 206 203 200
330 329 327 329 331 331 331 333 333 330 322 314 313 308 292 280 269 256 263 277 280 278 277 274 266 256 246 240 241 243 242 241 242 240 234 229 228 230 228 221 216 211 204 203 205 199 196 199 201 202 202 199 199 202 203 202 204 207 208 208 210 212 213
327 328 328 328 328 329 330 331 332 333 324 313 310 306 294 280 263 255 259 265 269 270 271 271 269 263 255 248 245 245 244 244 245 246 244 238 233 231 225 216 208 204 200 198 198 198 197 197 197 198 197 194 194 196 198 198 198 202 204 204 206 207 211
330 329 329 327 324 325 328 332 338 343 335 328 327 314 293 276 258 253 257 262 267 270 269 266 266 265 262 257 254 252 249 247 246 246 248 246 238 230 223 212 202 199 196 194 195 196 196 195 194 195 196 196 195 194 194 193 189 190 194 198 201 203 205
330 329 330 329 326 327 330 337 349 354 348 349 356 359 2 8 314 259 254 252 255 260 263 265 266 264 259 256 254 254 253 251 248 246 248 247 240 230 221 210 201 195 191 191 194 195 194 190 189 190 192 193 193 192 193 193 188 182 183 190 194 191 189
333 334 335 331 326 328 333 339 349 359 9 19 30 38 41 41 42 38 20 328 283 274 267 256 246 246 250 252 254 257 259 257 252 248 246 243 237 231 223 211 201 197 197 197 196 193 190 188 187 188 188 188 186 187 191 195 193 185 178 181 185 176 166
341 340 337 331 328 330 335 345 4 23 36 42 45 48 46 43 41 41 39 30 13 349 281 209 188 194 212 221 227 238 248 251 245 239 236 231 227 226 225 216 204 199 199 199 195 189 187 187 187 187 186 184 182 184 186 188 190 188 181 177 176 168 158
348 348 346 343 343 345 352 15 36 40 41 41 42 44 45 43 39 38 37 31 15 0 130 113 105 102 103 112 112 101 87 76 82 146 195 204 205 207 211 210 204 198 195 192 187 186 187 185 182 181 181 177 174 180 185 183 183 184 179 174 173 171 166
356 357 357 359 2 7 18 37 42 37 34 34 35 36 38 40 40 37 31 20 7 50 78 69 65 63 62 64 65 63 59 57 60 68 80 107 147 170 183 190 192 193 191 187 185 186 186 183 178 173 172 170 168 174 179 179 181 181 177 173 172 170 169
3 4 6 8 10 14 21 30 32 30 28 27 27 31 35 35 36 35 27 18 25 63 67 60 59 59 58 62 65 63 61 61 64 69 75 84 96 112 139 162 172 180 183 184 184 182 181 180 177 172 170 171 169 167 168 171 174 174 171 170 172 171 171
7 7 8 11 14 17 20 24 25 26 24 22 22 27 32 34 37 39 31 28 56 75 70 64 66 65 61 65 68 67 70 75 77 80 83 84 85 89 100 120 140 161 173 175 172 166 164 166 167 166 167 169 166 161 159 162 165 164 162 163 167 168 169
11 9 7 10 13 17 20 22 24 26 27 26 24 24 32 43 49 51 49 49 62 70 68 68 70 67 64 69 72 74 80 84 86 88 89 87 87 88 93 106 125 143 155 159 157 155 156 158 159 159 158 158 157 156 154 156 158 159 158 159 161 161 164
7 9 9 9 11 16 19 22 26 28 29 33 36 38 49 61 62 59 55 54 56 58 57 59 62 62 64 70 76 81 85 87 90 91 88 87 90 94 99 109 124 132 136 142 147 151 155 158 159 158 155 153 151 150 149 151 153 154 154 157 159 159 162
357 3 7 8 10 14 18 20 26 30 33 39 43 45 52 58 54 49 46 47 49 51 51 53 54 54 59 66 72 76 77 81 89 91 87 85 88 97 107 116 123 128 132 137 142 145 149 154 156 156 157 157 156 152 150 149 151 153 157 160 160 160 162
352 356 3 9 12 16 20 23 27 33 40 45 46 47 52 51 44 38 37 40 43 46 47 49 47 46 50 56 61 63 65 69 80 85 86 87 88 97 114 122 126 132 138 141 142 144 147 150 152 154 156 156 155 153 153 153 154 157 161 165 165 163 164
Height
760 759 757 756 755 754 753 753 752 751 750 750 749 748 748 746 745 743 742 740 739 739 740 740 741 741 741 742 743 743 744 744 745 746 746 747 748 748 748 749 750 749 747 747 748 749 749 750 751 752 753 755 757 759 762 765 768 770 773 775 777 780 783
757 755 754 752 751 750 750 749 748 747 746 745 745 744 743 742 741 740 738 737 735 735 736 736 736 737 737 738 739 739 740 740 741 742 742 743 744 745 745 745 746 746 746 745 746 747 747 748 749 750 751 753 755 756 758 760 763 766 769 771 773 776 779
754 752 751 749 748 747 746 745 744 743 742 741 741 740 739 738 737 737 736 734 732 732 732 733 732 733 733 734 735 735 736 736 738 738 739 740 741 742 742 742 743 743 743 743 744 745 745 746 747 748 749 751 753 755 757 757 759 762 765 768 770 772 775
750 749 748 747 745 744 743 742 741 740 738 738 737 737 736 735 734 734 733 731 730 729 729 729 729 729 730 731 731 731 732 733 734 735 735 736 737 738 740 740 740 741 741 742 742 743 744 745 746 746 747 749 752 754 755 755 756 758 761 765 767 770 772
747 746 745 743 742 741 740 739 738 737 735 735 734 734 733 732 731 730 730 728 727 726 725 725 725 726 726 727 727 728 728 729 730 731 732 732 734 735 737 737 738 739 739 739 740 741 742 743 744 746 746 748 749 751 753 754 754 755 758 761 764 766 768
744 743 741 740 739 738 736 735 734 733 732 731 730 730 729 728 728 727 726 726 725 723 722 722 721 722 723 723 724 724 725 725 727 728 729 730 731 732 733 735 736 736 737 737 738 738 740 741 743 744 745 746 747 748 750 751 753 754 755 758 761 763 765
741 739 738 736 735 734 733 731 730 729 728 727 727 726 725 725 724 724 723 722 722 721 720 719 718 719 719 719 720 721 721 723 724 726 726 727 728 729 731 732 733 734 734 735 735 736 737 738 740 741 743 744 746 747 748 748 750 751 753 755 757 760 763
737 735 734 732 731 730 729 727 726 725 724 723 723 722 722 721 721 721 720 719 719 718 718 717 716 716 716 716 717 718 719 720 722 723 724 725 726 727 728 729 730 731 731 732 733 733 734 735 737 739 741 742 745 746 746 745 745 746 748 751 754 758 761
733 732 729 728 727 725 724 723 721 720 720 719 718 718 718 717 717 717 716 716 715 715 715 714 714 714 714 714 715 716 717 718 719 721 721 722 723 724 725 727 727 728 728 729 729 730 731 732 734 736 738 740 741 742 742 742 743 744 746 749 753 756 759
729 728 725 724 722 720 719 718 716 715 715 715 715 714 714 714 713 713 713 712 711 711 711 711 711 711 711 712 713 714 715 716 717 718 719 720 721 722 723 724 725 725 725 726 726 727 728 729 731 732 734 735 737 738 739 741 743 744 746 749 753 756 757
726 724 722 720 718 716 715 713 711 710 710 710 711 711 711 710 710 709 709 709 708 708 708 708 708 708 709 710 710 711 713 714 714 715 716 717 718 719 720 721 722 723 723 723 724 724 725 726 727 729 730 732 734 736 738 740 741 742 744 747 751 753 754
722 720 718 716 714 712 710 708 707 706 706 706 707 707 707 707 706 706 705 705 705 705 705 705 706 706 706 707 708 709 710 711 712 713 713 714 715 716 717 718 719 720 721 722 722 723 723 724 725 726 727 729 731 733 736 738 739 741 743 744 746 748 749
720 717 715 713 711 709 707 704 703 702 702 702 702 703 703 703 703 702 702 701 701 702 702 703 703 704 704 704 705 706 707 708 709 710 711 712 713 714 714 715 716 717 718 719 720 721 721 721 723 724 724 725 727 730 733 736 738 740 741 742 743 744 745
717 714 712 710 708 705 703 701 699 699 698 698 698 698 699 698 698 698 698 697 698 698 699 700 700 701 701 702 703 703 704 705 706 707 708 709 710 711 712 712 713 715 716 717 717 718 718 719 720 721 722 723 725 727 730 732 735 736 738 739 740 742 744
714 712 709 707 705 703 700 698 696 695 694 694 694 694 694 693 693 693 693 693 693 694 695 696 697 698 698 699 700 700 701 702 703 704 705 706 707 708 708 709 710 711 713 714 715 715 716 717 718 719 720 721 723 725 726 729 731 733 735 737 739 741 743
712 710 707 704 703 701 698 695 694 693 692 691 690 689 688 687 687 688 688 688 689 690 691 692 694 694 695 696 696 697 698 700 701 702 703 703 704 705 705 706 706 708 710 711 713 713 714 715 716 717 718 719 721 723 725 728 730 732 734 736 738 740 742
711 708 706 703 700 699 696 693 691 690 689 687 686 685 683 681 681 682 684 684 685 686 687 688 689 691 692 692 693 693 695 697 699 700 700 700 701 702 703 703 704 705 707 708 710 711 712 713 714 715 716 717 719 720 722 726 728 730 732 734 736 738 739
710 706 704 702 699 697 695 692 689 688 686 685 683 682 680 677 677 678 680 681 682 683 684 685 685 687 688 688 689 690 692 694 696 696 697 697 698 699 700 700 701 702 704 705 707 709 710 711 712 713 714 715 716 718 719 722 724 727 729 731 732 734 737
710 706 702 700 698 695 693 691 688 687 685 683 682 681 679 677 676 676 677 678 679 680 681 681 682 683 684 685 686 688 689 691 692 693 693 694 695 696 696 696 697 699 701 702 704 706 708 709 710 711 712 713 714 716 717 719 722 724 726 728 730 731 734
709 705 701 699 696 694 691 689 687 685 684 682 681 680 679 678 677 676 676 676 677 678 678 679 679 680 681 682 683 684 685 687 688 689 690 691 692 692 692 693 695 697 698 700 702 703 705 707 708 710 711 712 713 714 715 717 720 722 724 726 727 729 731
708 704 700 697 695 692 690 687 685 683 682 680 679 678 678 677 676 676 675 675 676 676 677 677 677 678 678 679 680 681 682 683 684 685 686 687 688 688 689 691 693 694 696 698 699 701 703 704 706 708 709 710 711 712 714 716 718 720 722 724 725 727 728
707 703 699 695 692 690 688 685 683 682 680 678 677 677 676 676 675 675 675 675 675 675 675 675 675 676 676 677 677 678 679 680 681 682 683 684 684 685 687 689 690 692 694 696 697 699 700 702 704 705 707 708 710 711 712 714 716 718 721 723 724 725 727
706 702 698 694 691 688 685 684 682 680 678 677 676 675 674 674 674 674 674 674 674 674 674 674 674 674 675 675 676 676 677 677 678 679 680 681 682 683 685 687 688 689 691 693 695 697 698 699 701 703 704 706 708 710 711 713 715 717 719 721 723 724 726
706 702 699 695 691 687 684 682 680 679 677 676 674 674 673 673 673 673 673 673 673 673 673 673 673 673 673 674 674 674 675 675 676 676 677 678 679 680 682 684 685 687 689 691 692 694 696 697 699 701 703 704 706 708 710 712 714 716 718 720 722 724 726
706 703 699 695 691 687 683 681 679 678 677 675 674 673 672 672 672 672 672 672 672 672 672 671 671 671 672 672 672 673 673 673 673 674 674 675 676 677 678 680 681 683 686 688 689 691 693 695 697 699 701 703 704 707 709 711 713 715 717 719 721 723 725
706 703 699 695 690 686 683 681 679 677 676 675 673 672 672 671 671 671 671 671 671 671 671 670 670 670 670 670 671 671 671 671 671 671 672 672 673 674 674 676 677 680 682 684 686 689 691 693 695 698 699 701 703 705 708 709 711 714 716 719 721 723 725
706 703 699 695 690 686 683 681 679 678 676 675 674 673 673 672 672 671 671 671 671 670 670 670 670 669 669 669 669 669 669 669 669 669 669 669 670 671 671 672 674 675 678 680 683 686 688 691 693 695 697 700 702 704 706 708 710 712 715 718 720 722 725
707 704 700 696 690 686 683 681 680 679 678 677 676 675 674 674 673 672 672 671 671 671 670 670 669 669 669 669 668 668 668 668 667 667 666 667 667 668 669 670 671 673 675 677 680 683 685 687 690 693 695 698 700 702 704 707 709 711 714 717 719 722 724
709 706 702 697 692 688 685 683 682 681 680 679 678 677 676 675 674 674 673 672 672 671 671 670 670 669 669 669 668 668 668 667 667 666 665 665 665 665 667 668 669 671 673 675 677 679 681 684 688 690 693 696 698 701 703 706 708 710 713 716 719 721 723
710 707 703 699 694 690 688 686 685 684 683 681 680 679 678 677 676 675 674 673 672 672 671 670 670 670 670 670 669 669 668 668 668 667 666 665 665 665 665 666 667 669 671 673 675 677 679 682 685 688 691 694 696 698 701 705 707 709 711 714 717 719 722
710 707 704 700 697 693 690 688 687 686 684 683 682 681 679 678 677 676 675 674 673 672 672 672 671 671 671 671 670 670 670 669 669 668 667 666 666 665 666 666 666 667 669 671 673 676 678 680 683 686 689 692 694 696 700 703 706 708 711 713 715 717 720
709 706 704 702 699 696 693 691 689 688 686 685 683 682 681 679 678 676 675 674 674 673 673 673 673 673 673 673 672 672 671 671 670 670 669 668 667 667 667 667 668 668 669 671 673 675 678 680 683 685 688 690 693 696 698 701 705 708 710 712 715 717 719
709 707 705 703 700 698 696 694 691 689 687 685 684 683 681 680 678 677 676 675 675 675 674 674 675 674 674 674 673 673 673 672 672 672 671 670 670 669 669 669 670 670 671 672 674 675 678 680 683 685 688 691 694 696 698 701 704 707 709 711 714 717 719
708 707 706 704 701 699 698 695 693 691 689 686 685 684 683 681 679 678 678 677 676 676 676 676 676 676 676 676 675 675 675 674 674 674 673 673 672 672 672 673 673 673 674 675 676 678 679 681 683 686 689 692 695 698 700 702 705 707 709 711 714 716 719
711 708 707 706 703 701 700 697 695 693 690 688 686 685 683 681 680 680 680 680 679 679 679 679 678 678 678 677 677 677 677 676 676 676 675 675 675 675 675 675 676 676 677 677 678 680 682 683 685 687 689 692 695 698 700 703 705 707 709 712 714 716 719
716 712 709 708 705 703 701 699 697 695 693 690 688 687 684 683 684 685 684 683 683 682 682 681 681 680 680 680 679 679 679 678 678 678 677 677 677 677 677 677 678 678 679 680 681 682 684 685 687 689 691 693 695 698 700 702 704 707 709 711 714 716 718